EUTELSAT 174A

Last updated on Oct. 1, 2020, 5:42 a.m. UTC

1 28924U 05052A   20274.82342892 -.00000003  00000-0  00000+0 0  9993
2 28924   0.0672 359.3061 0006558 191.7202 289.4466  1.00273545 54077
UTC
Height (km)
Latitude
Longitude
Inclination
Orbital Period
UTC large
Height (km)
Speed (km/s)
/
Latitude / Longitude
Inclination (degrees)
Orbital Period (minutes)
Azimuth
Elevation
Range (km)
Doppler Factor
iOS Compass Heading
iOS Angle

Next 30 passes for location: Hong Kong

Rise time Rise Azimuth (degrees) Set time Set Azimuth (degrees) Duration Max altitude (degrees)

No matching passes for this satellites